Location: Izdebno
(52.6670°N, 16.2170°E)
Time: 02:39:45
(UTC+02:00)

SR - Pass Details

Date: 01 March 2024
Orbit: 577 x 862 km, 66.7° (Epoch: 22 April)

Event Time Altitude Azimuth Distance (km) Brightness Sun altitude
Rises 16:50:48 0° 271° (W) 3,416 ? 5.6°
Reaches altitude 10° 16:53:49 10° 286° (WNW) 2,453 ? 5.1°
Maximum altitude 16:58:19 24° 338° (NNW) 1,637 ? 4.5°
Drops below altitude 10° 17:02:38 10° 32° (NNE) 2,328 ? 3.9°
Sets 17:05:26 0° 46° (NE) 3,202 ? 3.5°
